LGL4591 ELLX-EGLC

Flight info

Callsign LGL4591
Flight time 1h 1m
Altitude 24000
Route DIK N852 TERLA L608 SUMUM
Aircraft DH8D/M-SDE2E3FGRY/H

Departure

Time 2026-05-06 15:58
Airport Luxembourg-Findel International Airport (ELLX)

Arrival

Time 2026-05-06 16:59
Airport London City Airport (EGLC)
Time Latitude Longitude Altitude Speed Heading
2026-05-06 15:40 49.63255 6.21426 1236 ft 0 kts 240°
2026-05-06 15:51 49.63256 6.21430 1235 ft 2 kts 242°
2026-05-06 15:51 49.63261 6.21443 1235 ft 1 kts 239°
2026-05-06 15:52 49.63271 6.21457 1235 ft 2 kts 199°
2026-05-06 15:52 49.63285 6.21459 1235 ft 2 kts 162°
2026-05-06 15:52 49.63293 6.21453 1235 ft 0 kts 148°
2026-05-06 15:54 49.63287 6.21459 1235 ft 4 kts 147°
2026-05-06 15:54 49.63253 6.21494 1234 ft 0 kts 125°
2026-05-06 15:55 49.63251 6.21499 1234 ft 0 kts 120°
2026-05-06 15:55 49.63250 6.21502 1234 ft 1 kts 122°
2026-05-06 15:55 49.63213 6.21545 1234 ft 9 kts 149°
2026-05-06 15:55 49.63150 6.21602 1232 ft 11 kts 149°
2026-05-06 15:56 49.63092 6.21675 1231 ft 11 kts 98°
2026-05-06 15:56 49.63121 6.21783 1230 ft 10 kts 63°
2026-05-06 15:56 49.63152 6.21883 1228 ft 10 kts 64°
2026-05-06 15:56 49.63176 6.21981 1227 ft 10 kts 87°
2026-05-06 15:57 49.63129 6.22065 1226 ft 11 kts 150°
2026-05-06 15:57 49.63050 6.22134 1224 ft 12 kts 149°
2026-05-06 15:57 49.62986 6.22076 1225 ft 20 kts 240°
2026-05-06 15:57 49.62784 6.21499 1234 ft 102 kts 239°
2026-05-06 15:58 49.62307 6.20241 1245 ft 159 kts 244°
2026-05-06 15:58 49.61747 6.18670 1574 ft 178 kts 246°
2026-05-06 15:58 49.61165 6.16915 2150 ft 186 kts 244°
2026-05-06 15:58 49.60497 6.15171 2691 ft 195 kts 243°
2026-05-06 15:59 49.59813 6.13408 3399 ft 194 kts 243°
2026-05-06 15:59 49.59101 6.11543 3762 ft 210 kts 243°
2026-05-06 15:59 49.58364 6.09638 3900 ft 209 kts 242°
2026-05-06 15:59 49.57611 6.07677 3962 ft 216 kts 243°
2026-05-06 16:00 49.56856 6.05620 3974 ft 223 kts 248°
2026-05-06 16:00 49.56519 6.03316 3983 ft 224 kts 273°
2026-05-06 16:00 49.56880 6.01007 3993 ft 226 kts 299°
2026-05-06 16:00 49.57894 5.99168 3991 ft 228 kts 325°
2026-05-06 16:01 49.59349 5.98226 3979 ft 230 kts 353°
2026-05-06 16:01 49.60902 5.98574 4172 ft 221 kts 17°
2026-05-06 16:01 49.62273 5.99279 4817 ft 207 kts 17°
2026-05-06 16:01 49.63600 5.99978 5518 ft 201 kts 18°
2026-05-06 16:02 49.64923 6.00699 6083 ft 202 kts 18°
2026-05-06 16:02 49.66284 6.01042 6527 ft 204 kts 348°
2026-05-06 16:02 49.67492 5.99989 7017 ft 204 kts 319°
2026-05-06 16:02 49.68520 5.98504 7547 ft 205 kts 316°
2026-05-06 16:03 49.69555 5.96964 8096 ft 206 kts 316°
2026-05-06 16:03 49.70567 5.95428 8595 ft 209 kts 315°
2026-05-06 16:03 49.71600 5.93840 9144 ft 210 kts 315°
2026-05-06 16:03 49.72637 5.92231 9646 ft 214 kts 314°
2026-05-06 16:04 49.73682 5.90600 10187 ft 215 kts 314°
2026-05-06 16:04 49.74721 5.88969 10706 ft 217 kts 313°
2026-05-06 16:04 49.75787 5.87291 11232 ft 219 kts 313°
2026-05-06 16:04 49.76839 5.85629 11754 ft 220 kts 313°
2026-05-06 16:05 49.77908 5.83938 12245 ft 222 kts 313°
2026-05-06 16:05 49.78983 5.82232 12732 ft 224 kts 313°
2026-05-06 16:05 49.80078 5.80491 13225 ft 225 kts 313°
2026-05-06 16:05 49.81162 5.78766 13694 ft 226 kts 313°
2026-05-06 16:06 49.82261 5.77016 14159 ft 228 kts 313°
2026-05-06 16:06 49.83353 5.75273 14578 ft 230 kts 313°
2026-05-06 16:06 49.84466 5.73496 14980 ft 232 kts 313°
2026-05-06 16:06 49.85598 5.71687 15415 ft 233 kts 313°
2026-05-06 16:07 49.86723 5.69887 15800 ft 235 kts 312°
2026-05-06 16:07 49.87855 5.68075 16196 ft 237 kts 312°
2026-05-06 16:07 49.89007 5.66230 16578 ft 238 kts 312°
2026-05-06 16:07 49.90155 5.64391 16942 ft 240 kts 312°
2026-05-06 16:08 49.91310 5.62538 17317 ft 240 kts 312°
2026-05-06 16:08 49.92473 5.60670 17657 ft 242 kts 312°
2026-05-06 16:08 49.93637 5.58800 18027 ft 242 kts 312°
2026-05-06 16:08 49.94805 5.56923 18377 ft 243 kts 312°
2026-05-06 16:09 49.95972 5.55044 18696 ft 244 kts 312°
2026-05-06 16:09 49.97149 5.53149 19010 ft 246 kts 312°
2026-05-06 16:09 49.98346 5.51221 19327 ft 246 kts 312°
2026-05-06 16:09 49.99522 5.49324 19624 ft 248 kts 312°
2026-05-06 16:10 50.00716 5.47398 19923 ft 248 kts 312°
2026-05-06 16:10 50.01916 5.45459 20190 ft 250 kts 312°
2026-05-06 16:10 50.03119 5.43515 20461 ft 251 kts 312°
2026-05-06 16:10 50.04324 5.41566 20711 ft 254 kts 312°
2026-05-06 16:11 50.05554 5.39582 21273 ft 255 kts 312°
2026-05-06 16:11 50.06795 5.37580 21876 ft 258 kts 312°
2026-05-06 16:11 50.08042 5.35562 22437 ft 261 kts 312°
2026-05-06 16:11 50.09293 5.33536 22997 ft 264 kts 311°
2026-05-06 16:12 50.10570 5.31464 23562 ft 267 kts 311°
2026-05-06 16:12 50.11889 5.29318 23781 ft 274 kts 311°
2026-05-06 16:12 50.13207 5.27163 23845 ft 278 kts 311°
2026-05-06 16:12 50.14548 5.24973 23863 ft 283 kts 311°
2026-05-06 16:13 50.15917 5.22738 23868 ft 289 kts 311°
2026-05-06 16:13 50.17322 5.20443 23871 ft 294 kts 311°
2026-05-06 16:13 50.18749 5.18112 23872 ft 300 kts 311°
2026-05-06 16:13 50.20192 5.15753 23871 ft 305 kts 311°
2026-05-06 16:14 50.21675 5.13325 23872 ft 309 kts 311°
2026-05-06 16:14 50.23159 5.10895 23873 ft 313 kts 312°
2026-05-06 16:14 50.24656 5.08444 23874 ft 316 kts 312°
2026-05-06 16:14 50.26189 5.05928 23874 ft 319 kts 312°
2026-05-06 16:15 50.27724 5.03409 23874 ft 322 kts 312°
2026-05-06 16:15 50.29264 5.00880 23874 ft 324 kts 312°
2026-05-06 16:15 50.30817 4.98324 23874 ft 325 kts 312°
2026-05-06 16:15 50.32378 4.95755 23872 ft 327 kts 312°
2026-05-06 16:16 50.33931 4.93196 23873 ft 328 kts 312°
2026-05-06 16:16 50.35500 4.90609 23875 ft 329 kts 312°
2026-05-06 16:16 50.37088 4.87986 23875 ft 330 kts 312°
2026-05-06 16:16 50.38670 4.85407 23875 ft 331 kts 313°
2026-05-06 16:17 50.40257 4.82782 23876 ft 332 kts 312°
2026-05-06 16:17 50.41840 4.80151 23871 ft 333 kts 312°
2026-05-06 16:17 50.43422 4.77522 23877 ft 333 kts 312°
2026-05-06 16:17 50.44997 4.74897 23877 ft 334 kts 312°
2026-05-06 16:18 50.46598 4.72232 23881 ft 334 kts 312°
2026-05-06 16:18 50.48191 4.69581 23881 ft 334 kts 312°
2026-05-06 16:18 50.49772 4.66948 23882 ft 334 kts 312°
2026-05-06 16:18 50.51366 4.64290 23883 ft 334 kts 312°
2026-05-06 16:19 50.52977 4.61601 23881 ft 334 kts 312°
2026-05-06 16:19 50.54549 4.58974 23884 ft 334 kts 312°
2026-05-06 16:19 50.56157 4.56285 23886 ft 334 kts 313°
2026-05-06 16:19 50.57740 4.53635 23885 ft 335 kts 312°
2026-05-06 16:20 50.59326 4.50977 23885 ft 335 kts 313°
2026-05-06 16:20 50.60929 4.48288 23886 ft 335 kts 312°
2026-05-06 16:20 50.62506 4.45638 23886 ft 335 kts 313°
2026-05-06 16:20 50.64105 4.42951 23886 ft 335 kts 313°
2026-05-06 16:21 50.65698 4.40271 23885 ft 335 kts 313°
2026-05-06 16:21 50.67270 4.37622 23883 ft 335 kts 313°
2026-05-06 16:21 50.68852 4.34956 23885 ft 335 kts 312°
2026-05-06 16:21 50.70442 4.32270 23886 ft 335 kts 312°
2026-05-06 16:22 50.72063 4.29531 23881 ft 334 kts 311°
2026-05-06 16:22 50.73631 4.26878 23885 ft 334 kts 311°
2026-05-06 16:22 50.75207 4.24208 23885 ft 334 kts 311°
2026-05-06 16:22 50.76797 4.21513 23886 ft 334 kts 311°
2026-05-06 16:23 50.78371 4.18841 23889 ft 334 kts 311°
2026-05-06 16:23 50.79938 4.16179 23889 ft 334 kts 311°
2026-05-06 16:23 50.81534 4.13465 23886 ft 334 kts 311°
2026-05-06 16:23 50.83120 4.10766 23887 ft 334 kts 311°
2026-05-06 16:24 50.84681 4.08104 23888 ft 334 kts 311°
2026-05-06 16:24 50.86266 4.05400 23888 ft 334 kts 311°
2026-05-06 16:24 50.87837 4.02716 23886 ft 334 kts 311°
2026-05-06 16:24 50.89410 4.00027 23885 ft 334 kts 311°
2026-05-06 16:25 50.90990 3.97321 23885 ft 335 kts 311°
2026-05-06 16:25 50.92566 3.94622 23886 ft 335 kts 311°
2026-05-06 16:25 50.94142 3.91918 23887 ft 335 kts 311°
2026-05-06 16:25 50.95727 3.89197 23886 ft 335 kts 311°
2026-05-06 16:26 50.97300 3.86493 23888 ft 335 kts 311°
2026-05-06 16:26 50.98872 3.83788 23887 ft 335 kts 311°
2026-05-06 16:26 51.00459 3.81054 23886 ft 335 kts 311°
2026-05-06 16:26 51.02034 3.78336 23891 ft 335 kts 311°
2026-05-06 16:27 51.03607 3.75622 23892 ft 335 kts 311°
2026-05-06 16:27 51.05166 3.72926 23889 ft 335 kts 311°
2026-05-06 16:27 51.06748 3.70190 23892 ft 335 kts 311°
2026-05-06 16:27 51.08307 3.67489 23893 ft 334 kts 311°
2026-05-06 16:28 51.09883 3.64756 23891 ft 334 kts 311°
2026-05-06 16:28 51.11449 3.62039 23893 ft 334 kts 311°
2026-05-06 16:28 51.13020 3.59308 23895 ft 333 kts 311°
2026-05-06 16:28 51.14595 3.56568 23896 ft 333 kts 311°
2026-05-06 16:29 51.16154 3.53852 23896 ft 333 kts 311°
2026-05-06 16:29 51.17707 3.51145 23897 ft 333 kts 311°
2026-05-06 16:29 51.19274 3.48410 23897 ft 333 kts 311°
2026-05-06 16:29 51.20821 3.45707 23901 ft 333 kts 311°
2026-05-06 16:30 51.22390 3.42964 23899 ft 334 kts 311°
2026-05-06 16:30 51.22912 3.42050 23898 ft 334 kts 311°
2026-05-06 16:30 51.25494 3.37524 23902 ft 334 kts 311°
2026-05-06 16:30 51.26548 3.35676 23906 ft 334 kts 311°
2026-05-06 16:31 51.28619 3.32037 23908 ft 333 kts 311°
2026-05-06 16:31 51.30151 3.29345 23906 ft 333 kts 311°
2026-05-06 16:31 51.31721 3.26581 23911 ft 333 kts 311°
2026-05-06 16:31 51.33268 3.23855 23914 ft 333 kts 311°
2026-05-06 16:32 51.34821 3.21115 23924 ft 332 kts 311°
2026-05-06 16:32 51.36349 3.18421 23923 ft 333 kts 311°
2026-05-06 16:32 51.37911 3.15658 23919 ft 333 kts 311°
2026-05-06 16:32 51.39452 3.12928 23921 ft 333 kts 311°
2026-05-06 16:33 51.40847 3.09995 23900 ft 331 kts 297°
2026-05-06 16:33 51.41720 3.06643 23923 ft 330 kts 290°
2026-05-06 16:33 51.42527 3.03181 23930 ft 330 kts 289°
2026-05-06 16:34 51.44118 2.96323 23931 ft 330 kts 289°
2026-05-06 16:34 51.44657 2.94001 23928 ft 331 kts 289°
2026-05-06 16:34 51.45721 2.89421 23928 ft 331 kts 290°
2026-05-06 16:34 51.46516 2.85998 23928 ft 331 kts 290°
2026-05-06 16:35 51.47324 2.82523 23931 ft 331 kts 290°
2026-05-06 16:35 51.48122 2.79080 23929 ft 331 kts 290°
2026-05-06 16:35 51.48920 2.75642 23933 ft 331 kts 290°
2026-05-06 16:35 51.49719 2.72190 23929 ft 331 kts 290°
2026-05-06 16:36 51.50517 2.68739 23931 ft 331 kts 290°
2026-05-06 16:36 51.51317 2.65278 23931 ft 331 kts 290°
2026-05-06 16:36 51.52105 2.61861 23936 ft 330 kts 289°
2026-05-06 16:36 51.52635 2.59562 23935 ft 330 kts 289°
2026-05-06 16:37 51.53704 2.54914 23933 ft 330 kts 289°
2026-05-06 16:37 51.54493 2.51478 23936 ft 330 kts 289°
2026-05-06 16:37 51.55020 2.49181 23866 ft 333 kts 289°
2026-05-06 16:37 51.56090 2.44498 23343 ft 339 kts 290°
2026-05-06 16:38 51.56907 2.40915 22847 ft 345 kts 290°
2026-05-06 16:38 51.57461 2.38482 22507 ft 348 kts 290°
2026-05-06 16:38 51.58551 2.33693 21814 ft 353 kts 289°
2026-05-06 16:38 51.59387 2.30025 21289 ft 352 kts 289°
2026-05-06 16:39 51.60216 2.26367 20756 ft 344 kts 289°
2026-05-06 16:39 51.60733 2.24088 20427 ft 339 kts 289°
2026-05-06 16:39 51.61793 2.19406 19763 ft 331 kts 289°
2026-05-06 16:39 51.62319 2.17076 19427 ft 327 kts 289°
2026-05-06 16:40 51.63333 2.12585 18788 ft 321 kts 289°
2026-05-06 16:40 51.64103 2.09230 18307 ft 317 kts 290°
2026-05-06 16:40 51.64887 2.05985 17842 ft 314 kts 291°
2026-05-06 16:40 51.65419 2.03794 17526 ft 311 kts 291°
2026-05-06 16:41 51.66198 2.00568 17057 ft 308 kts 291°
2026-05-06 16:41 51.67213 1.96330 16439 ft 304 kts 291°
2026-05-06 16:41 51.67712 1.94231 16130 ft 303 kts 291°
2026-05-06 16:41 51.68697 1.90065 15521 ft 300 kts 291°
2026-05-06 16:42 51.69188 1.87978 15211 ft 298 kts 291°
2026-05-06 16:42 51.69914 1.84877 14745 ft 296 kts 291°
2026-05-06 16:42 51.70358 1.81666 14243 ft 296 kts 270°
2026-05-06 16:42 51.69776 1.78537 13737 ft 298 kts 240°
2026-05-06 16:43 51.68424 1.76006 13256 ft 298 kts 229°
2026-05-06 16:43 51.67126 1.73462 12765 ft 297 kts 236°
2026-05-06 16:43 51.65985 1.70680 12258 ft 296 kts 240°
2026-05-06 16:43 51.64997 1.67814 11763 ft 296 kts 244°
2026-05-06 16:44 51.64104 1.64820 11253 ft 295 kts 248°
2026-05-06 16:44 51.63058 1.60805 10581 ft 295 kts 250°
2026-05-06 16:44 51.62568 1.58743 10246 ft 294 kts 251°
2026-05-06 16:44 51.61874 1.55646 9745 ft 294 kts 252°
2026-05-06 16:45 51.61010 1.51530 9081 ft 293 kts 254°
2026-05-06 16:45 51.60592 1.49456 8795 ft 291 kts 254°
2026-05-06 16:45 51.59987 1.46378 8389 ft 288 kts 255°
2026-05-06 16:45 51.59218 1.42381 7835 ft 275 kts 255°
2026-05-06 16:46 51.58849 1.40436 7556 ft 269 kts 255°
2026-05-06 16:46 51.58153 1.36716 7143 ft 258 kts 256°
2026-05-06 16:46 51.57824 1.34945 6950 ft 253 kts 255°
2026-05-06 16:46 51.57320 1.32208 6658 ft 247 kts 255°
2026-05-06 16:47 51.56836 1.29538 6390 ft 254 kts 255°
2026-05-06 16:47 51.56345 1.26817 6110 ft 252 kts 255°
2026-05-06 16:47 51.55850 1.24113 5827 ft 251 kts 255°
2026-05-06 16:47 51.55365 1.21442 5547 ft 250 kts 255°
2026-05-06 16:48 51.54879 1.18771 5263 ft 249 kts 255°
2026-05-06 16:48 51.54400 1.16130 5042 ft 245 kts 255°
2026-05-06 16:48 51.53929 1.13539 4896 ft 239 kts 255°
2026-05-06 16:48 51.53466 1.10986 4763 ft 241 kts 256°
2026-05-06 16:49 51.53001 1.08389 4654 ft 246 kts 255°
2026-05-06 16:49 51.52516 1.05703 4531 ft 250 kts 255°
2026-05-06 16:49 51.52030 1.03018 4409 ft 254 kts 255°
2026-05-06 16:49 51.51535 1.00297 4281 ft 252 kts 255°
2026-05-06 16:50 51.51042 0.97596 4148 ft 251 kts 256°
2026-05-06 16:50 51.50629 0.94914 4021 ft 248 kts 264°
2026-05-06 16:50 51.50430 0.91305 3975 ft 241 kts 268°
2026-05-06 16:50 51.50352 0.89524 3968 ft 240 kts 268°
2026-05-06 16:51 51.50242 0.86812 3974 ft 250 kts 268°
2026-05-06 16:51 51.50123 0.83967 3975 ft 257 kts 268°
2026-05-06 16:51 51.49999 0.81112 3967 ft 255 kts 268°
2026-05-06 16:51 51.49874 0.78319 3965 ft 253 kts 268°
2026-05-06 16:52 51.49749 0.75521 3965 ft 250 kts 268°
2026-05-06 16:52 51.49634 0.72758 3964 ft 248 kts 269°
2026-05-06 16:52 51.49524 0.70001 3967 ft 247 kts 269°
2026-05-06 16:52 51.49416 0.67251 3970 ft 245 kts 269°
2026-05-06 16:53 51.49307 0.64509 3968 ft 244 kts 269°
2026-05-06 16:53 51.49197 0.61833 3970 ft 243 kts 269°
2026-05-06 16:53 51.49086 0.59125 3970 ft 242 kts 269°
2026-05-06 16:53 51.48980 0.56436 3974 ft 242 kts 270°
2026-05-06 16:54 51.48951 0.53730 3969 ft 241 kts 273°
2026-05-06 16:54 51.48992 0.51043 3970 ft 240 kts 275°
2026-05-06 16:54 51.49078 0.48405 3973 ft 239 kts 276°
2026-05-06 16:54 51.49184 0.45728 3976 ft 239 kts 276°
2026-05-06 16:55 51.49289 0.43073 3974 ft 239 kts 276°
2026-05-06 16:55 51.49386 0.40436 3969 ft 239 kts 276°
2026-05-06 16:55 51.49479 0.37773 3972 ft 239 kts 276°
2026-05-06 16:55 51.49569 0.35142 3974 ft 238 kts 276°
2026-05-06 16:56 51.49658 0.32483 3974 ft 238 kts 275°
2026-05-06 16:56 51.49739 0.29981 3959 ft 225 kts 275°
2026-05-06 16:56 51.49801 0.27644 3955 ft 200 kts 275°
2026-05-06 16:56 51.49857 0.25636 3984 ft 183 kts 276°
2026-05-06 16:57 51.49950 0.22984 3838 ft 178 kts 276°
2026-05-06 16:57 51.49999 0.21662 3550 ft 178 kts 276°
2026-05-06 16:57 51.50066 0.19685 3080 ft 175 kts 277°
2026-05-06 16:57 51.50131 0.17752 2604 ft 176 kts 277°
2026-05-06 16:58 51.50193 0.15840 2235 ft 168 kts 277°
2026-05-06 16:58 51.50250 0.13964 1718 ft 171 kts 277°
2026-05-06 16:58 51.50307 0.12073 1249 ft 169 kts 275°
2026-05-06 16:58 51.50373 0.10226 827 ft 163 kts 278°
2026-05-06 16:59 51.50443 0.08420 407 ft 159 kts 275°
2026-05-06 16:59 51.50487 0.06691 88 ft 148 kts 274°
2026-05-06 16:59 51.50531 0.05275 26 ft 89 kts 272°
2026-05-06 16:59 51.50551 0.04611 26 ft 30 kts 273°
2026-05-06 17:00 51.50548 0.04445 26 ft 10 kts 217°
2026-05-06 17:00 51.50512 0.04440 26 ft 0 kts 178°
2026-05-06 17:00 51.50503 0.04441 26 ft 1 kts 170°
2026-05-06 17:00 51.50491 0.04452 26 ft 2 kts 134°
2026-05-06 17:01 51.50479 0.04498 26 ft 4 kts 99°
2026-05-06 17:01 51.50476 0.04549 26 ft 6 kts 92°
2026-05-06 17:01 51.50474 0.04624 26 ft 6 kts 92°
2026-05-06 17:01 51.50462 0.04657 26 ft 3 kts 169°
2026-05-06 17:02 51.50446 0.04657 25 ft 0 kts 182°